Regional Weather Roundup
Issued by NWS

Home | Current Version | Previous Version | Graphics & Text | Print | Product List | Glossary On
Versions: 1 2 3 4 5 6 7 8 9 10 11 12 13 14 15 16 17 18 19 20 21 22 23 24 25 26 27 28 29 30 31 32 33 34 35 36 37 38 39 40 41 42 43 44 45 46 47 48 49 50
000
ASUS45 KCYS 201610
RWRWY

WYOMING REGIONAL WEATHER ROUNDUP
NATIONAL WEATHER SERVICE CHEYENNE WY
1000 AM MDT WED AUG 20 2014

NOTE:  "FAIR" INDICATES FEW OR NO CLOUDS BELOW 12,000 FEET
WITH NO SIGNIFICANT WEATHER AND/OR OBSTRUCTIONS TO VISIBILITY.

WYZ001-201700-
YELLOWSTONE NATIONAL PARK

CITY           SKY/WX    TMP DP  RH WIND       PRES   REMARKS
LK YELLOWSTONE   N/A     54  44  69 SE5       30.15R
W YELLOWSTONE  NOT AVBL

$$
WYZ002>013-054>058-071-098>099-201700-
NORTHERN WYOMING

CITY           SKY/WX    TMP DP  RH WIND       PRES   REMARKS
JACKSON          N/A     48  46  93 CALM      30.09S
CODY           PTSUNNY   70  46  43 NW10      29.93S
GREYBULL       PTSUNNY   74  49  41 CALM      29.84S
WORLAND        PTSUNNY   74  51  44 NE5       29.86R
SHERIDAN       PTSUNNY   74  47  38 NW12      29.84R
BUFFALO        CLOUDY    70  46  42 N18G24    29.88R
GILLETTE       SUNNY     77  44  30 NW16G30   29.81S
HULETT         FAIR      75  46  35 MISG      29.80
NEWCASTLE      FAIR      77  46  33 SW10G16   29.82

$$
WYZ014>020-022>026-101>103-201700-
CENTRAL WYOMING

CITY           SKY/WX    TMP DP  RH WIND       PRES   REMARKS
BIG PINEY      PTSUNNY   58  44  60 E5        30.11R
PINEDALE       PTSUNNY   55  43  62 CALM      30.12R
DUBOIS         FAIR      59  43  55 N10       30.07R
LANDER         MOSUNNY   72  42  34 VRB5      29.94S
RIVERTON       MOSUNNY   72  42  34 NW7       29.95R
CASPER         SUNNY     74  48  39 SW21G26   29.91F
DOUGLAS        MOSUNNY   75  49  39 W15       29.89S

$$
WYZ021-027>030-104>119-201700-
SOUTHERN WYOMING

CITY           SKY/WX    TMP DP  RH WIND       PRES   REMARKS
EVANSTON       MOSUNNY   59  52  77 S16       30.13R
KEMMERER       SUNNY     61  46  59 W9G16     30.13R
FORT BRIDGER   FAIR      60  49  68 SW14      30.14R
ROCK SPRINGS   PTSUNNY   61  49  64 W17       30.10R
DIXON          CLOUDY    62  56  81 SW15G21   30.12R
RAWLINS        CLOUDY    65  52  62 SW18G25   30.08R
SARATOGA       CLOUDY    59  54  82 MISG      30.11R
LARAMIE        MOSUNNY   66  48  52 SW22      30.07S
CHEYENNE       MOSUNNY   75  49  39 W18G31    29.99R
TORRINGTON     SUNNY     79  53  40 W13G22    29.85S
PINE BLUFFS    FAIR      79  48  34 W9G16     29.94R

$$



USA.gov is the U.S. government's official web portal to all federal, state and local government web resources and services.